MELBOURNE AIRPORT, Australia

1:13 AM AEDT on February 23, 2017 (GMT +1100)
Melbourne International

Weather History for YMML - January, 2013

Change the Weather History Date:

Saturday, January 5, 2013

  Actual Average Record
Temperature  
Mean Temperature 76 °F -  
Max Temperature 91 °F 77 °F 98 °F (1997)
Min Temperature 62 °F 55 °F 47 °F (2014)
Cooling Degree Days 12    
Growing Degree Days 26 (Base 50)    
Moisture  
Dew Point 51 °F    
Average Humidity 47    
Maximum Humidity 78    
Minimum Humidity 13    
Precipitation  
Precipitation 0.00 in 0.06 in - ()
Sea Level Pressure  
Sea Level Pressure 29.94 in    
Wind  
Wind Speed 13 mph ()    
Max Wind Speed 20 mph    
Max Gust Speed -    
Visibility 9.1 miles    
Events      
Averages and records for this station are not official NWS values.
T = Trace of Precipitation, MM = Missing Value Source: Averaged Metar Reports

Daily Weather History Graph

Daily Weather History Graph

Search for Another Location

Airport or City:

Trip Planner

Search our weather history database for the weather conditions in past years. The results will help you decide how hot, cold, wet, or windy it might be!

Date:

Astronomy

Jan. 05, 2013 Rise Set
Actual Time 6:05 AM AEDT 8:45 PM AEDT
Civil Twilight 5:35 AM AEDT 9:16 PM AEDT
Nautical Twilight 4:56 AM AEDT 9:55 PM AEDT
Astronomical Twilight 4:13 AM AEDT 10:38 PM AEDT
Moon 12:23 AM AEDT (1/5) 1:35 PM AEDT (1/5)
Length of Visible Light 15h 41m
Length of Day
14h 39m
Waning Gibbous, 51% of the Moon is Illuminated
Jan 5
Waning Gibbous
Jan 5
Last Quarter
Jan 12
New
Jan 19
First Quarter
Jan 27
Full

Hourly Weather History & Observations

Time (AEDT) Temp. Dew Point Humidity Pressure Visibility Wind Dir Wind Speed Gust Speed Precip Events Conditions
12:00 AM 91 °F 46 °F 13% 29.66 in 25 mi North 17.3 mph - -   Partly Cloudy
12:00 AM 91.4 °F 46.4 °F 21% 29.65 in - North 17.3 mph - N/A   Clear
12:30 AM 89.6 °F 46.4 °F 22% 29.65 in - North 17.3 mph - N/A   Clear
1:00 AM 89.6 °F 46.4 °F 22% 29.65 in 6.2 mi North 19.6 mph - N/A   Unknown
1:30 AM 89.6 °F 46.4 °F 22% 29.65 in - North 16.1 mph - N/A   Clear
2:00 AM 83 °F 48 °F 20% 29.68 in - SSW 8.1 mph - -  
2:00 AM 84.2 °F 48.2 °F 29% 29.68 in - SSW 8.1 mph - N/A   Clear
2:30 AM 80.6 °F 42.8 °F 26% 29.68 in - South 11.5 mph - N/A   Clear
3:00 AM 77 °F 47 °F 24% 29.70 in 25 mi South 8.1 mph - -   Partly Cloudy
3:00 AM 77.0 °F 48.2 °F 36% 29.71 in - South 8.1 mph - N/A   Clear
3:30 AM 73.4 °F 55.4 °F 53% 29.71 in - SE 11.5 mph - N/A   Clear
4:00 AM 71.6 °F 57.2 °F 60% 29.74 in - South 9.2 mph - N/A   Clear
4:30 AM 69.8 °F 57.2 °F 64% 29.77 in - SSW 12.7 mph - N/A   Clear
5:00 AM 68 °F 57 °F 59% 29.82 in - SSW 12.7 mph - -  
5:00 AM 68.0 °F 57.2 °F 68% 29.83 in - SSW 12.7 mph - N/A   Clear
5:30 AM 66.2 °F 59.0 °F 78% 29.83 in 6.2 mi SSW 11.5 mph - N/A   Partly Cloudy
6:00 AM 65 °F 59 °F 74% 29.87 in 16 mi SSW 12.7 mph - -   Haze
6:00 AM 66.2 °F 59.0 °F 78% 29.86 in 6.2 mi SSW 12.7 mph - N/A   Partly Cloudy
6:30 AM 64.4 °F 57.2 °F 77% 29.89 in 6.2 mi SSW 9.2 mph - N/A   Partly Cloudy
7:00 AM 64.4 °F 57.2 °F 77% 29.92 in 6.2 mi SSW 12.7 mph - N/A   Partly Cloudy
7:30 AM 66.2 °F 57.2 °F 73% 29.95 in 6.2 mi SSW 10.4 mph - N/A   Mostly Cloudy
8:00 AM 67 °F 58 °F 65% 29.95 in - South 9.2 mph - -  
8:00 AM 66.2 °F 57.2 °F 73% 29.95 in 6.2 mi South 9.2 mph - N/A   Scattered Clouds
8:30 AM 68.0 °F 59.0 °F 73% 29.95 in 6.2 mi SSW 8.1 mph - N/A   Scattered Clouds
9:00 AM 69 °F 58 °F 60% 29.97 in 16 mi South 10.4 mph - -   Partly Cloudy
9:00 AM 68.0 °F 59.0 °F 73% 29.98 in 6.2 mi South 10.4 mph - N/A   Mostly Cloudy
9:30 AM 69.8 °F 57.2 °F 64% 29.98 in 6.2 mi South 10.4 mph - N/A   Scattered Clouds
10:00 AM 73.4 °F 55.4 °F 53% 29.98 in 6.2 mi SSE 11.5 mph - N/A   Partly Cloudy
10:30 AM 73.4 °F 55.4 °F 53% 29.98 in 6.2 mi South 10.4 mph - N/A   Partly Cloudy
11:00 AM 76 °F 53 °F 33% 29.99 in - South 13.8 mph - -  
11:00 AM 75.2 °F 53.6 °F 47% 29.98 in - South 13.8 mph - N/A   Clear
11:30 AM 75.2 °F 50.0 °F 41% 30.01 in - South 13.8 mph - N/A   Clear
12:00 PM 76 °F 50 °F 29% 30.00 in 16 mi South 13.8 mph - -   Partly Cloudy
12:00 PM 75.2 °F 50.0 °F 41% 30.01 in - South 13.8 mph - N/A   Clear
12:30 PM 78.8 °F 48.2 °F 34% 30.01 in - South 12.7 mph - N/A   Clear
1:00 PM 80.6 °F 50.0 °F 34% 30.01 in - South 13.8 mph - N/A   Clear
1:30 PM 77.0 °F 48.2 °F 36% 30.01 in - SSE 15.0 mph - N/A   Clear
2:00 PM 78 °F 51 °F 28% 30.00 in - SSE 15.0 mph - -  
2:00 PM 78.8 °F 51.8 °F 39% 30.01 in - SSE 15.0 mph - N/A   Clear
2:30 PM 77.0 °F 51.8 °F 41% 30.01 in - South 19.6 mph - N/A   Clear
3:00 PM 78 °F 49 °F 25% 30.02 in 16 mi South 18.4 mph - -   Partly Cloudy
3:00 PM 78.8 °F 48.2 °F 34% 30.01 in - South 18.4 mph - N/A   Clear
3:30 PM 77.0 °F 46.4 °F 34% 30.01 in - South 18.4 mph - N/A   Clear
4:00 PM 75.2 °F 48.2 °F 38% 30.04 in - South 18.4 mph - N/A   Clear
4:30 PM 73.4 °F 46.4 °F 38% 30.04 in - South 19.6 mph - N/A   Clear
5:00 PM 73 °F 48 °F 30% 30.03 in - South 18.4 mph - -  
5:00 PM 73.4 °F 48.2 °F 41% 30.04 in - South 18.4 mph - N/A   Clear
5:30 PM 75.2 °F 48.2 °F 38% 30.04 in - South 18.4 mph - N/A   Clear
6:00 PM 74 °F 48 °F 28% 30.05 in 16 mi South 18.4 mph - -   Partly Cloudy
6:00 PM 73.4 °F 48.2 °F 41% 30.04 in - South 18.4 mph - N/A   Clear
6:30 PM 69.8 °F 48.2 °F 46% 30.04 in - South 18.4 mph - N/A   Clear
7:00 PM 71.6 °F 46.4 °F 41% 30.06 in - South 18.4 mph - N/A   Clear
7:30 PM 69.8 °F 48.2 °F 46% 30.06 in - South 17.3 mph - N/A   Clear
8:00 PM 69 °F 49 °F 38% 30.09 in - South 16.1 mph - -  
8:00 PM 68.0 °F 48.2 °F 49% 30.09 in - South 16.1 mph - N/A   Clear
8:30 PM 68.0 °F 46.4 °F 46% 30.09 in - South 16.1 mph - N/A   Clear
9:00 PM 66.2 °F 48.2 °F 52% 30.09 in - South 11.5 mph - N/A   Clear
9:30 PM 64.4 °F 51.8 °F 64% 30.12 in - South 13.8 mph - N/A   Clear
10:00 PM 64.4 °F 51.8 °F 64% 30.12 in - South 11.5 mph - N/A   Clear
10:30 PM 64.4 °F 53.6 °F 68% 30.15 in - South 15.0 mph - N/A   Clear
11:00 PM 63 °F 53 °F 60% 30.17 in - South 13.8 mph - -  
11:00 PM 62.6 °F 51.8 °F 68% 30.15 in - South 13.8 mph - N/A   Clear
11:30 PM 62.6 °F 51.8 °F 68% 30.15 in - South 13.8 mph - N/A   Clear